Regional Weather Roundup
Issued by NWS

Home | Current Version | Previous Version | Text Only | Print | Product List | Glossary Off
Versions: 1 2 3 4 5 6 7 8 9 10 11 12 13 14 15 16 17 18 19 20 21 22 23 24 25 26 27 28 29 30 31 32 33 34 35 36 37 38 39 40 41 42 43 44 45 46 47 48 49 50

873
ASUS43 KIND 271809
RWRIN

WEATHER ROUNDUP FOR INDIANA
NATIONAL WEATHER SERVICE INDIANAPOLIS IN
200 PM EDT SAT MAY 27 2017

NOTE: "FAIR" INDICATES FEW OR NO CLOUDS BELOW 12,000 FEET WITH NO
SIGNIFICANT WEATHER AND/OR OBSTRUCTIONS TO VISIBILITY.

* - STATION DOES NOT REPORT WEATHER SUCH AS PRECIPITATION OR FOG.

+ - STATION NOT QUALITY CONTROLLED BY THE NATIONAL WEATHER SERVICE.
    USE DATA WITH CAUTION...ESPECIALLY DEWPOINT AND RELATIVE
    HUMIDITY OBSERVATIONS.

INZ001>003-010>013-019-020-271900-
NORTHWEST INDIANA

CITY           SKY/WX    TMP DP  RH WIND       PRES   REMARKS
GARY /AIRPORT/ PTSUNNY   66  57  72 N7        29.92S
KNOX *+        CLOUDY    68  52  56 E6        29.91R
LA PORTE +     CLOUDY    70  61  74 NE3       29.91S
6HR MIN TEMP:  59; 6HR MAX TEMP:  70;

MICHIGAN CITY+ CLOUDY    68  61  77 NW6       29.92R
MONTICELLO +   CLOUDY    65  60  83 CALM      29.92R
6HR MIN TEMP:  61; 6HR MAX TEMP:  65;

RENSSELAER +   CLOUDY    70  61  73 NE5       29.91S
VALPARAISO     CLOUDY    72  62  71 SE3       29.91S
6HR MIN TEMP:  60; 6HR MAX TEMP:  73;


$$

LMZ046-743>745-271900-
SOUTHERN LAKE MICHIGAN

STATION/POSITION TIME  TEMP    WIND        PRES    WAVE
                       AIR SEA DIR/SP/G            HT
                 (UTC) (F)     (DEG/KT/KT) (MB)    (FT)
BURNS HARBOR     1803   54     340/  4/  6 1013.5
MICHIGAN CITY    1740   57     270/  5/  5   N/A
5NW MICH CITY    1800   53 56  320/  6/  6   N/A     1

$$

INZ004-005-014>016-021>024-271900-
NORTH CENTRAL INDIANA

CITY           SKY/WX    TMP DP  RH WIND       PRES   REMARKS
ELKHART        CLOUDY    72  59  64 CALM      29.91R
GOSHEN         CLOUDY    70  59  68 VRB3      29.90S
6HR MIN TEMP:  61; 6HR MAX TEMP:  72;

LOGANSPORT +   CLOUDY    68  61  77 N5        29.92R
ROCHESTER +    CLOUDY    70  63  78 CALM      29.91S
SOUTH BEND     CLOUDY    71  61  70 E6        29.90S
6HR MIN TEMP:  59; 6HR MAX TEMP:  73;

WARSAW +       CLOUDY    68  63  83 SE6       29.91R

$$

INZ006>009-017-018-025>027-271900-
NORTHEAST INDIANA

CITY           SKY/WX    TMP DP  RH WIND       PRES   REMARKS
ANGOLA *+      CLOUDY    70  61  73 E5        29.90S
AUBURN +       CLOUDY    70  61  73 NE3       29.90S
FORT WAYNE     CLOUDY    71  63  75 E6        29.90R
6HR MIN TEMP:  61; 6HR MAX TEMP:  72; 6HR PCP: TRACE;

HUNTINGTON +   CLOUDY   N/A N/A N/A CALM      29.90S
KENDALLVILLE + CLOUDY    72  61  69 E3        29.90F

$$

INZ028-029-035-036-043>045-051>053-271900-
WEST CENTRAL INDIANA

CITY           SKY/WX    TMP DP  RH WIND       PRES   REMARKS
CRAWFORDSVL +  PTSUNNY  -34 -35  93 SE3       29.92S
6HR MIN TEMP: -35; 6HR MAX TEMP: -29; 6HR PCP:  0.02;

GREENCASTLE +  MOSUNNY   73  61  64 NW6       29.90F
LAFAYETTE      CLOUDY    68  62  81 N5        29.91S
6HR MIN TEMP:  60; 6HR MAX TEMP:  68;

TERRE HAUTE    MOSUNNY   75  62  64 NW5       29.90S
6HR MIN TEMP:  67; 6HR MAX TEMP:  76;


$$

INZ030>032-037>040-046>048-054>057-064-065-271900-
CENTRAL INDIANA

CITY           SKY/WX    TMP DP  RH WIND       PRES   REMARKS
ANDERSON       PTSUNNY  N/A N/A N/A NW12      29.90
CP ATTERBURY + MOSUNNY   81  63  54 W3        29.88S
COLUMBUS       PTSUNNY   81  63  54 SW10      29.88F
FRANKFORT +    CLOUDY    71  64  79 CALM      29.93S
6HR MIN TEMP:  65; 6HR MAX TEMP:  71;

GREENWOOD *+   SUNNY     76  63  64 NW6       29.89F
6HR MIN TEMP:  69; 6HR MAX TEMP:  76;

INDIANAPOLIS   MOSUNNY   75  63  66 NW9       29.88F
6HR MIN TEMP:  68; 6HR MAX TEMP:  76;

-EAGLE CREEK   MOSUNNY   75  62  64 VRB6      29.89F
6HR MIN TEMP:  67; 6HR MAX TEMP:  75;

KOKOMO +       CLOUDY    69  63  81 N6        29.92R
6HR MIN TEMP:  63; 6HR MAX TEMP:  71;

MARION +       CLOUDY    68  63  83 N3        29.91S
MT COMFORT *+    N/A    N/A N/A N/A MISG        N/A
SHELBYVILLE    MOSUNNY   80  65  59 NW6       29.87F
6HR MIN TEMP:  72; 6HR MAX TEMP:  81;

ZIONSVILLE +   CLOUDY    69  63  80 NW3       29.92S
6HR MIN TEMP:  64; 6HR MAX TEMP:  69;


$$

INZ033-034-041-042-049-050-058-059-271900-
EAST CENTRAL INDIANA

CITY           SKY/WX    TMP DP  RH WIND       PRES   REMARKS
MUNCIE         CLOUDY    74  63  68 NW5       29.89S
6HR MIN TEMP:  68; 6HR MAX TEMP:  76;

RICHMOND +     PTSUNNY   73  64  73 W8        29.90S

$$

INZ060-061-067>069-081>083-085>088-271900-
SOUTHWEST INDIANA

CITY           SKY/WX    TMP DP  RH WIND       PRES   REMARKS
EVANSVILLE     MOSUNNY   85  69  58 SW8       29.87F
6HR MIN TEMP:  71; 6HR MAX TEMP:  86;

HUNTINGBURG *+ CLOUDY    82  72  71 SW9       29.88F
6HR MIN TEMP:  70; 6HR MAX TEMP:  82;

WASHINGTON +   CLOUDY    78  65  63 W6        29.88S
6HR MIN TEMP:  69; 6HR MAX TEMP:  78;


$$

INZ062-063-066-070>080-084-089>092-271900-
SOUTH CENTRAL AND SOUTHEAST INDIANA

CITY           SKY/WX    TMP DP  RH WIND       PRES   REMARKS
BLOOMINGTON    SUNNY     80  61  52 SW8       29.88S
6HR MIN TEMP:  70; 6HR MAX TEMP:  81;

MADISON *+     PTSUNNY   81  68  65 SW6       29.90S
SEYMOUR +      PTSUNNY   82  68  61 W6        29.88S

$$





USA.gov is the U.S. government's official web portal to all federal, state and local government web resources and services.